Time,TemperatureF,DewpointF,PressureIn,WindDirection,WindDirectionDegrees,WindSpeedMPH,WindSpeedGustMPH,Humidity,HourlyPrecipIn,Conditions,Clouds,dailyrainin,SoftwareType,DateUTC
2013-01-11 00:03:00,47.7,44.9,29.72,North,1,0.0,0.0,90,0.00,CLR,OVC,0.00,WeatherDisplay:10.37,2013-01-11 06:03:00,
2013-01-11 00:08:00,47.7,44.9,29.72,North,1,0.0,0.0,90,0.00,CLR,OVC,0.00,WeatherDisplay:10.37,2013-01-11 06:08:00,
2013-01-11 00:13:00,47.7,44.9,29.73,North,1,0.0,0.0,90,0.00,CLR,OVC,0.00,WeatherDisplay:10.37,2013-01-11 06:13:00,
2013-01-11 00:18:00,47.7,44.9,29.72,North,1,0.0,0.0,90,0.00,CLR,OVC,0.00,WeatherDisplay:10.37,2013-01-11 06:18:00,
2013-01-11 00:23:00,47.7,44.9,29.73,North,1,0.0,0.0,90,0.00,CLR,OVC,0.00,WeatherDisplay:10.37,2013-01-11 06:23:00,
2013-01-11 00:28:00,47.7,44.9,29.73,North,1,0.0,0.0,90,0.00,CLR,OVC,0.00,WeatherDisplay:10.37,2013-01-11 06:28:00,
2013-01-11 00:33:00,47.8,45.0,29.73,North,1,0.0,0.0,90,0.00,CLR,OVC,0.00,WeatherDisplay:10.37,2013-01-11 06:33:00,
2013-01-11 00:38:00,47.8,45.0,29.73,North,1,0.0,0.0,90,0.00,CLR,OVC,0.00,WeatherDisplay:10.37,2013-01-11 06:38:00,
2013-01-11 00:43:00,47.8,45.0,29.73,North,1,0.0,0.0,90,0.00,CLR,OVC,0.00,WeatherDisplay:10.37,2013-01-11 06:43:00,
2013-01-11 00:48:00,47.8,45.0,29.73,North,1,0.0,0.0,90,0.00,CLR,OVC,0.00,WeatherDisplay:10.37,2013-01-11 06:48:00,
2013-01-11 00:53:00,47.8,45.0,29.73,North,1,0.0,0.0,90,0.00,CLR,OVC,0.00,WeatherDisplay:10.37,2013-01-11 06:53:00,
2013-01-11 00:58:00,47.8,45.0,29.73,North,1,0.0,0.0,90,0.00,CLR,OVC,0.00,WeatherDisplay:10.37,2013-01-11 06:58:00,
2013-01-11 01:03:00,48.0,45.2,29.73,North,1,0.0,0.0,90,0.00,CLR,OVC,0.00,WeatherDisplay:10.37,2013-01-11 07:03:00,
2013-01-11 01:08:00,48.0,45.2,29.73,North,1,0.0,0.0,90,0.00,CLR,OVC,0.00,WeatherDisplay:10.37,2013-01-11 07:08:00,
2013-01-11 01:13:00,48.0,45.2,29.73,North,1,0.0,0.0,90,0.00,CLR,OVC,0.00,WeatherDisplay:10.37,2013-01-11 07:13:00,
2013-01-11 01:18:00,48.0,45.2,29.73,North,1,0.0,0.0,90,0.00,CLR,OVC,0.00,WeatherDisplay:10.37,2013-01-11 07:18:00,
2013-01-11 01:23:00,48.0,45.2,29.73,North,1,0.0,0.0,90,0.00,CLR,OVC,0.00,WeatherDisplay:10.37,2013-01-11 07:23:00,
2013-01-11 01:28:00,48.0,45.2,29.72,North,1,0.0,0.0,90,0.00,CLR,OVC,0.00,WeatherDisplay:10.37,2013-01-11 07:28:00,
2013-01-11 01:33:00,48.2,45.4,29.73,North,1,0.0,0.0,90,0.00,CLR,OVC,0.00,WeatherDisplay:10.37,2013-01-11 07:33:00,
2013-01-11 01:38:00,48.2,45.4,29.73,North,1,0.0,0.0,90,0.00,CLR,OVC,0.00,WeatherDisplay:10.37,2013-01-11 07:38:00,
2013-01-11 01:43:00,48.2,45.4,29.72,North,1,0.0,0.0,90,0.00,CLR,OVC,0.00,WeatherDisplay:10.37,2013-01-11 07:43:00,
2013-01-11 01:48:00,48.2,45.4,29.72,North,1,0.0,0.0,90,0.00,CLR,OVC,0.00,WeatherDisplay:10.37,2013-01-11 07:48:00,
2013-01-11 01:53:00,48.2,45.4,29.72,North,1,0.0,0.0,90,0.00,CLR,OVC,0.00,WeatherDisplay:10.37,2013-01-11 07:53:00,
2013-01-11 01:58:00,48.2,45.4,29.70,North,1,0.0,0.0,90,0.00,CLR,OVC,0.00,WeatherDisplay:10.37,2013-01-11 07:58:00,
2013-01-11 02:03:00,48.2,45.4,29.70,North,1,0.0,0.0,90,0.00,CLR,OVC,0.00,WeatherDisplay:10.37,2013-01-11 08:03:00,
2013-01-11 02:08:00,48.2,45.4,29.72,North,1,0.0,0.0,90,0.00,CLR,OVC,0.00,WeatherDisplay:10.37,2013-01-11 08:08:00,
2013-01-11 02:13:00,48.2,45.4,29.72,North,1,0.0,0.0,90,0.00,CLR,OVC,0.00,WeatherDisplay:10.37,2013-01-11 08:13:00,
2013-01-11 02:18:00,48.2,45.4,29.72,North,1,0.0,0.0,90,0.00,CLR,OVC,0.00,WeatherDisplay:10.37,2013-01-11 08:18:00,
2013-01-11 02:23:00,48.2,45.4,29.72,North,1,0.0,0.0,90,0.00,CLR,OVC,0.00,WeatherDisplay:10.37,2013-01-11 08:23:00,
2013-01-11 02:28:00,48.2,45.4,29.72,North,1,0.0,0.0,90,0.00,CLR,OVC,0.00,WeatherDisplay:10.37,2013-01-11 08:28:00,
2013-01-11 02:33:00,48.2,45.4,29.72,North,1,0.0,0.0,90,0.00,CLR,OVC,0.00,WeatherDisplay:10.37,2013-01-11 08:33:00,
2013-01-11 02:38:00,48.2,45.4,29.72,North,1,0.0,0.0,90,0.00,CLR,OVC,0.00,WeatherDisplay:10.37,2013-01-11 08:38:00,
2013-01-11 02:43:00,48.2,45.4,29.72,North,1,0.0,0.0,90,0.00,CLR,OVC,0.00,WeatherDisplay:10.37,2013-01-11 08:43:00,
2013-01-11 02:48:00,48.2,45.4,29.72,North,1,0.0,0.0,90,0.00,CLR,OVC,0.00,WeatherDisplay:10.37,2013-01-11 08:48:00,
2013-01-11 02:53:00,48.2,45.4,29.73,North,1,0.0,0.0,90,0.00,CLR,OVC,0.00,WeatherDisplay:10.37,2013-01-11 08:53:00,
2013-01-11 02:58:00,48.2,45.4,29.72,North,1,0.0,0.0,90,0.00,CLR,OVC,0.00,WeatherDisplay:10.37,2013-01-11 08:58:00,
2013-01-11 03:03:00,48.2,45.4,29.72,North,1,0.0,0.0,90,0.00,CLR,OVC,0.00,WeatherDisplay:10.37,2013-01-11 09:03:00,
2013-01-11 03:08:00,48.2,45.4,29.72,North,1,0.0,0.0,90,0.00,CLR,OVC,0.00,WeatherDisplay:10.37,2013-01-11 09:08:00,
2013-01-11 03:13:00,48.2,45.4,29.72,North,1,0.0,0.0,90,0.00,CLR,OVC,0.00,WeatherDisplay:10.37,2013-01-11 09:13:00,
2013-01-11 03:18:00,48.2,45.4,29.72,North,1,0.0,0.0,90,0.00,CLR,OVC,0.00,WeatherDisplay:10.37,2013-01-11 09:18:00,
2013-01-11 03:23:00,48.2,45.4,29.72,North,1,0.0,0.0,90,0.00,CLR,OVC,0.00,WeatherDisplay:10.37,2013-01-11 09:23:00,
2013-01-11 03:28:00,48.0,45.2,29.72,North,1,0.0,0.0,90,0.00,CLR,OVC,0.00,WeatherDisplay:10.37,2013-01-11 09:28:00,
2013-01-11 03:33:00,48.0,44.9,29.72,North,1,0.0,0.0,89,0.00,CLR,OVC,0.00,WeatherDisplay:10.37,2013-01-11 09:33:00,
2013-01-11 03:38:00,48.0,44.9,29.72,North,1,0.0,0.0,89,0.00,CLR,OVC,0.00,WeatherDisplay:10.37,2013-01-11 09:38:00,
2013-01-11 03:43:00,48.0,44.9,29.71,North,1,0.0,0.0,89,0.00,CLR,OVC,0.00,WeatherDisplay:10.37,2013-01-11 09:43:00,
2013-01-11 03:48:00,48.0,44.9,29.72,North,1,0.0,0.0,89,0.00,CLR,OVC,0.00,WeatherDisplay:10.37,2013-01-11 09:48:00,
2013-01-11 03:53:00,48.0,44.9,29.70,North,1,0.0,0.0,89,0.00,CLR,OVC,0.00,WeatherDisplay:10.37,2013-01-11 09:53:00,
2013-01-11 03:58:00,48.0,44.9,29.70,North,1,0.0,0.0,89,0.00,CLR,OVC,0.00,WeatherDisplay:10.37,2013-01-11 09:58:00,
2013-01-11 04:03:00,48.0,44.9,29.70,North,1,0.0,0.0,89,0.00,CLR,OVC,0.00,WeatherDisplay:10.37,2013-01-11 10:03:00,
2013-01-11 04:08:00,48.0,44.9,29.70,North,1,0.0,0.0,89,0.00,CLR,OVC,0.00,WeatherDisplay:10.37,2013-01-11 10:08:00,
2013-01-11 04:13:00,48.0,44.9,29.70,North,1,0.0,0.0,89,0.00,CLR,OVC,0.00,WeatherDisplay:10.37,2013-01-11 10:13:00,
2013-01-11 04:18:00,48.0,44.6,29.71,North,1,0.0,0.0,88,0.00,CLR,OVC,0.00,WeatherDisplay:10.37,2013-01-11 10:18:00,
2013-01-11 04:23:00,48.0,44.6,29.70,North,1,0.0,0.0,88,0.00,CLR,OVC,0.00,WeatherDisplay:10.37,2013-01-11 10:23:00,
2013-01-11 04:28:00,48.0,44.6,29.69,North,1,0.0,0.0,88,0.00,CLR,OVC,0.00,WeatherDisplay:10.37,2013-01-11 10:28:00,
2013-01-11 04:33:00,48.0,44.6,29.70,North,1,0.0,0.0,88,0.00,CLR,OVC,0.00,WeatherDisplay:10.37,2013-01-11 10:33:00,
2013-01-11 04:38:00,47.8,44.5,29.70,North,1,0.0,0.0,88,0.00,CLR,OVC,0.00,WeatherDisplay:10.37,2013-01-11 10:38:00,
2013-01-11 04:43:00,47.8,44.5,29.70,North,1,0.0,0.0,88,0.00,CLR,OVC,0.00,WeatherDisplay:10.37,2013-01-11 10:43:00,
2013-01-11 04:48:00,47.8,44.5,29.70,North,1,0.0,0.0,88,0.00,CLR,OVC,0.00,WeatherDisplay:10.37,2013-01-11 10:48:00,
2013-01-11 04:53:00,47.8,44.5,29.69,North,1,0.0,0.0,88,0.00,CLR,OVC,0.00,WeatherDisplay:10.37,2013-01-11 10:53:00,
2013-01-11 04:58:00,47.8,44.5,29.69,North,1,0.0,0.0,88,0.00,CLR,OVC,0.00,WeatherDisplay:10.37,2013-01-11 10:58:00,
2013-01-11 05:03:00,47.8,44.5,29.69,North,1,0.0,0.0,88,0.00,CLR,OVC,0.00,WeatherDisplay:10.37,2013-01-11 11:03:00,
2013-01-11 05:08:00,47.8,44.5,29.69,North,1,0.0,0.0,88,0.00,CLR,OVC,0.00,WeatherDisplay:10.37,2013-01-11 11:08:00,
2013-01-11 05:13:00,47.8,44.5,29.69,North,1,0.0,0.0,88,0.00,CLR,OVC,0.00,WeatherDisplay:10.37,2013-01-11 11:13:00,
2013-01-11 05:18:00,47.7,44.3,29.68,North,1,0.0,0.0,88,0.00,CLR,OVC,0.00,WeatherDisplay:10.37,2013-01-11 11:18:00,
2013-01-11 05:23:00,47.7,44.3,29.69,North,1,0.0,0.0,88,0.00,CLR,OVC,0.00,WeatherDisplay:10.37,2013-01-11 11:23:00,
2013-01-11 05:28:00,47.5,44.1,29.69,North,1,0.0,0.0,88,0.00,CLR,OVC,0.00,WeatherDisplay:10.37,2013-01-11 11:28:00,
2013-01-11 05:33:00,47.5,44.1,29.69,North,1,0.0,0.0,88,0.00,CLR,OVC,0.00,WeatherDisplay:10.37,2013-01-11 11:33:00,
2013-01-11 05:38:00,47.5,44.1,29.69,North,1,0.0,0.0,88,0.00,CLR,OVC,0.00,WeatherDisplay:10.37,2013-01-11 11:38:00,
2013-01-11 05:43:00,47.5,44.1,29.69,North,1,0.0,0.0,88,0.00,CLR,OVC,0.00,WeatherDisplay:10.37,2013-01-11 11:43:00,
2013-01-11 05:48:00,47.5,44.1,29.68,North,1,0.0,0.0,88,0.00,CLR,OVC,0.00,WeatherDisplay:10.37,2013-01-11 11:48:00,
2013-01-11 05:53:00,47.5,44.1,29.68,North,1,0.0,0.0,88,0.00,CLR,OVC,0.00,WeatherDisplay:10.37,2013-01-11 11:53:00,
2013-01-11 05:58:00,47.5,44.1,29.68,North,1,0.0,0.0,88,0.00,CLR,OVC,0.00,WeatherDisplay:10.37,2013-01-11 11:58:00,
2013-01-11 06:03:00,47.5,44.1,29.69,North,1,0.0,0.0,88,0.00,CLR,OVC,0.00,WeatherDisplay:10.37,2013-01-11 12:03:00,
2013-01-11 06:08:00,47.5,44.1,29.69,North,1,0.0,0.0,88,0.00,CLR,OVC,0.00,WeatherDisplay:10.37,2013-01-11 12:08:00,
2013-01-11 06:13:00,47.5,44.1,29.69,North,1,0.0,0.0,88,0.00,CLR,OVC,0.00,WeatherDisplay:10.37,2013-01-11 12:13:00,
2013-01-11 06:18:00,47.3,43.9,29.69,North,1,0.0,0.0,88,0.00,CLR,OVC,0.00,WeatherDisplay:10.37,2013-01-11 12:18:00,
2013-01-11 06:23:00,47.3,43.9,29.68,North,1,0.0,0.0,88,0.00,CLR,OVC,0.00,WeatherDisplay:10.37,2013-01-11 12:23:00,
2013-01-11 06:28:00,47.5,44.1,29.69,North,1,0.0,0.0,88,0.00,CLR,OVC,0.00,WeatherDisplay:10.37,2013-01-11 12:28:00,
2013-01-11 06:33:00,47.3,43.6,29.68,North,1,0.0,0.0,87,0.00,CLR,OVC,0.00,WeatherDisplay:10.37,2013-01-11 12:33:00,
2013-01-11 06:38:00,47.3,43.6,29.68,North,1,0.0,0.0,87,0.00,CLR,OVC,0.00,WeatherDisplay:10.37,2013-01-11 12:38:00,
2013-01-11 06:43:00,47.3,43.6,29.67,North,1,0.0,0.0,87,0.00,CLR,OVC,0.00,WeatherDisplay:10.37,2013-01-11 12:43:00,
2013-01-11 06:48:00,47.3,43.6,29.67,North,1,0.0,0.0,87,0.00,CLR,OVC,0.00,WeatherDisplay:10.37,2013-01-11 12:48:00,
2013-01-11 06:53:00,47.3,43.6,29.67,North,1,0.0,0.0,87,0.00,CLR,OVC,0.00,WeatherDisplay:10.37,2013-01-11 12:53:00,
2013-01-11 06:58:00,47.3,43.6,29.67,North,1,0.0,0.0,87,0.00,CLR,OVC,0.00,WeatherDisplay:10.37,2013-01-11 12:58:00,
2013-01-11 07:03:00,47.1,43.4,29.67,North,1,0.0,0.0,87,0.00,CLR,OVC,0.00,WeatherDisplay:10.37,2013-01-11 13:03:00,
2013-01-11 07:08:00,47.1,43.4,29.67,North,1,0.0,0.0,87,0.00,CLR,OVC,0.00,WeatherDisplay:10.37,2013-01-11 13:08:00,
2013-01-11 07:13:00,47.1,43.4,29.66,North,1,0.0,0.0,87,0.00,CLR,OVC,0.00,WeatherDisplay:10.37,2013-01-11 13:13:00,
2013-01-11 07:18:00,47.1,43.4,29.66,North,1,0.0,0.0,87,0.00,CLR,OVC,0.00,WeatherDisplay:10.37,2013-01-11 13:18:00,
2013-01-11 07:23:00,47.1,43.4,29.65,North,1,0.0,0.0,87,0.00,CLR,OVC,0.00,WeatherDisplay:10.37,2013-01-11 13:23:00,
2013-01-11 07:28:00,47.1,43.4,29.65,North,1,0.0,0.0,87,0.00,CLR,OVC,0.00,WeatherDisplay:10.37,2013-01-11 13:28:00,
2013-01-11 07:33:00,47.1,43.4,29.65,North,1,0.0,0.0,87,0.00,CLR,OVC,0.00,WeatherDisplay:10.37,2013-01-11 13:33:00,
2013-01-11 07:38:00,47.1,43.4,29.66,North,1,0.0,0.0,87,0.00,CLR,OVC,0.00,WeatherDisplay:10.37,2013-01-11 13:38:00,
2013-01-11 07:43:00,46.9,43.3,29.66,North,1,0.0,0.0,87,0.00,CLR,OVC,0.00,WeatherDisplay:10.37,2013-01-11 13:43:00,
2013-01-11 07:48:00,46.9,43.3,29.66,North,1,0.0,0.0,87,0.00,CLR,OVC,0.00,WeatherDisplay:10.37,2013-01-11 13:48:00,
2013-01-11 07:53:00,46.9,43.0,29.67,North,1,0.0,0.0,86,0.00,CLR,OVC,0.00,WeatherDisplay:10.37,2013-01-11 13:53:00,
2013-01-11 07:58:00,46.9,43.0,29.67,North,1,0.0,0.0,86,0.00,CLR,OVC,0.00,WeatherDisplay:10.37,2013-01-11 13:58:00,
2013-01-11 08:03:00,46.8,42.8,29.66,North,1,0.0,0.0,86,0.00,CLR,OVC,0.00,WeatherDisplay:10.37,2013-01-11 14:03:00,
2013-01-11 08:08:00,46.9,43.0,29.67,North,1,0.0,0.0,86,0.00,CLR,OVC,0.00,WeatherDisplay:10.37,2013-01-11 14:08:00,
2013-01-11 08:13:00,46.8,42.8,29.67,North,1,0.0,0.0,86,0.00,CLR,OVC,0.00,WeatherDisplay:10.37,2013-01-11 14:13:00,
2013-01-11 08:18:00,46.6,42.6,29.67,North,1,0.0,0.0,86,0.00,CLR,OVC,0.00,WeatherDisplay:10.37,2013-01-11 14:18:00,
2013-01-11 08:23:00,46.6,42.6,29.67,North,1,0.0,0.0,86,0.00,CLR,OVC,0.00,WeatherDisplay:10.37,2013-01-11 14:23:00,
2013-01-11 08:28:00,46.6,42.6,29.67,North,1,0.0,0.0,86,0.00,CLR,OVC,0.00,WeatherDisplay:10.37,2013-01-11 14:28:00,
2013-01-11 08:33:00,46.4,42.4,29.67,North,1,0.0,0.0,86,0.00,CLR,OVC,0.00,WeatherDisplay:10.37,2013-01-11 14:33:00,
2013-01-11 08:38:00,46.4,42.4,29.67,North,1,0.0,0.0,86,0.00,CLR,OVC,0.00,WeatherDisplay:10.37,2013-01-11 14:38:00,
2013-01-11 08:43:00,46.6,42.6,29.66,North,1,0.0,0.0,86,0.00,CLR,OVC,0.00,WeatherDisplay:10.37,2013-01-11 14:43:00,
2013-01-11 08:48:00,46.6,42.3,29.67,North,1,0.0,0.0,85,0.00,CLR,OVC,0.00,WeatherDisplay:10.37,2013-01-11 14:48:00,
2013-01-11 08:53:00,46.8,42.5,29.67,North,1,0.0,0.0,85,0.00,CLR,OVC,0.00,WeatherDisplay:10.37,2013-01-11 14:53:00,
2013-01-11 08:58:00,46.9,42.7,29.68,North,1,0.0,0.0,85,0.00,CLR,OVC,0.00,WeatherDisplay:10.37,2013-01-11 14:58:00,
2013-01-11 09:03:00,46.9,42.4,29.67,North,1,0.0,0.0,84,0.00,CLR,OVC,0.00,WeatherDisplay:10.37,2013-01-11 15:03:00,
2013-01-11 09:08:00,46.9,42.4,29.67,North,1,0.0,0.0,84,0.00,CLR,OVC,0.00,WeatherDisplay:10.37,2013-01-11 15:08:00,
2013-01-11 09:13:00,46.9,42.4,29.67,North,1,0.0,0.0,84,0.00,CLR,OVC,0.00,WeatherDisplay:10.37,2013-01-11 15:13:00,
2013-01-11 09:18:00,47.1,42.5,29.67,North,1,0.0,0.0,84,0.00,CLR,OVC,0.00,WeatherDisplay:10.37,2013-01-11 15:18:00,
2013-01-11 09:23:00,47.1,42.5,29.66,North,1,0.0,0.0,84,0.00,CLR,OVC,0.00,WeatherDisplay:10.37,2013-01-11 15:23:00,
2013-01-11 09:28:00,46.9,42.0,29.65,North,1,0.0,0.0,83,0.00,CLR,OVC,0.00,WeatherDisplay:10.37,2013-01-11 15:28:00,
2013-01-11 09:33:00,46.9,42.0,29.65,North,1,0.0,0.0,83,0.00,CLR,OVC,0.00,WeatherDisplay:10.37,2013-01-11 15:33:00,
2013-01-11 09:38:00,46.9,42.0,29.65,North,1,0.0,0.0,83,0.00,CLR,OVC,0.00,WeatherDisplay:10.37,2013-01-11 15:38:00,
2013-01-11 09:43:00,46.8,41.9,29.65,North,1,0.0,0.0,83,0.00,CLR,OVC,0.00,WeatherDisplay:10.37,2013-01-11 15:43:00,
2013-01-11 09:48:00,47.1,41.9,29.65,North,1,0.0,0.0,82,0.00,CLR,OVC,0.00,WeatherDisplay:10.37,2013-01-11 15:48:00,
2013-01-11 09:53:00,47.3,42.1,29.66,North,1,0.0,0.0,82,0.00,CLR,OVC,0.00,WeatherDisplay:10.37,2013-01-11 15:53:00,
2013-01-11 09:58:00,47.5,42.3,29.65,North,1,0.0,0.0,82,0.00,CLR,OVC,0.00,WeatherDisplay:10.37,2013-01-11 15:58:00,
2013-01-11 10:03:00,47.5,42.3,29.65,North,1,0.0,0.0,82,0.00,CLR,OVC,0.00,WeatherDisplay:10.37,2013-01-11 16:03:00,
2013-01-11 10:08:00,47.8,42.3,29.66,North,1,0.0,0.0,81,0.00,CLR,OVC,0.00,WeatherDisplay:10.37,2013-01-11 16:08:00,
2013-01-11 10:13:00,48.0,42.5,29.66,North,1,0.0,0.0,81,0.00,CLR,OVC,0.00,WeatherDisplay:10.37,2013-01-11 16:13:00,
2013-01-11 10:18:00,48.4,42.8,29.66,North,1,0.0,0.0,81,0.00,CLR,OVC,0.00,WeatherDisplay:10.37,2013-01-11 16:18:00,
2013-01-11 10:23:00,48.9,43.3,29.65,North,1,0.0,0.0,81,0.00,CLR,OVC,0.00,WeatherDisplay:10.37,2013-01-11 16:23:00,
2013-01-11 10:28:00,49.3,43.4,29.65,North,1,0.0,0.0,80,0.00,CLR,OVC,0.00,WeatherDisplay:10.37,2013-01-11 16:28:00,
2013-01-11 10:33:00,49.6,43.4,29.66,North,1,0.0,0.0,79,0.00,CLR,OVC,0.00,WeatherDisplay:10.37,2013-01-11 16:33:00,
2013-01-11 10:38:00,50.0,43.1,29.65,North,1,0.0,0.0,77,0.00,CLR,OVC,0.00,WeatherDisplay:10.37,2013-01-11 16:38:00,
2013-01-11 10:43:00,50.2,43.2,29.65,North,1,0.0,0.0,77,0.00,CLR,OVC,0.00,WeatherDisplay:10.37,2013-01-11 16:43:00,
2013-01-11 10:48:00,50.2,42.9,29.63,North,1,0.0,0.0,76,0.00,CLR,OVC,0.00,WeatherDisplay:10.37,2013-01-11 16:48:00,
2013-01-11 10:53:00,50.7,43.1,29.63,North,1,0.0,0.0,75,0.00,CLR,OVC,0.00,WeatherDisplay:10.37,2013-01-11 16:53:00,
2013-01-11 10:58:00,50.9,43.3,29.64,North,1,0.0,0.0,75,0.00,CLR,OVC,0.00,WeatherDisplay:10.37,2013-01-11 16:58:00,
2013-01-11 11:03:00,51.3,43.6,29.63,North,1,0.0,0.0,75,0.00,CLR,OVC,0.00,WeatherDisplay:10.37,2013-01-11 17:03:00,
2013-01-11 11:08:00,51.6,43.6,29.63,North,1,0.0,0.0,74,0.00,CLR,OVC,0.00,WeatherDisplay:10.37,2013-01-11 17:08:00,
2013-01-11 11:13:00,51.6,43.6,29.64,North,1,0.0,0.0,74,0.00,CLR,OVC,0.00,WeatherDisplay:10.37,2013-01-11 17:13:00,
2013-01-11 11:18:00,51.8,43.8,29.64,North,1,0.0,0.0,74,0.00,CLR,OVC,0.00,WeatherDisplay:10.37,2013-01-11 17:18:00,
2013-01-11 11:23:00,52.3,44.3,29.64,North,1,0.0,0.0,74,0.00,CLR,OVC,0.00,WeatherDisplay:10.37,2013-01-11 17:23:00,
2013-01-11 11:28:00,54.3,45.5,29.63,North,1,0.0,0.0,72,0.00,CLR,OVC,0.00,WeatherDisplay:10.37,2013-01-11 17:28:00,
2013-01-11 11:33:00,55.6,45.9,29.63,North,1,0.0,0.0,70,0.00,CLR,OVC,0.00,WeatherDisplay:10.37,2013-01-11 17:33:00,
2013-01-11 11:38:00,57.0,46.6,29.63,North,1,0.0,0.0,68,0.00,CLR,OVC,0.00,WeatherDisplay:10.37,2013-01-11 17:38:00,
2013-01-11 11:43:00,57.6,46.7,29.63,North,1,0.0,0.0,67,0.00,CLR,OVC,0.00,WeatherDisplay:10.37,2013-01-11 17:43:00,
2013-01-11 11:48:00,57.9,46.2,29.62,North,1,0.0,0.0,65,0.00,CLR,OVC,0.00,WeatherDisplay:10.37,2013-01-11 17:48:00,
2013-01-11 11:53:00,58.3,46.2,29.61,North,1,0.0,0.0,64,0.00,CLR,OVC,0.00,WeatherDisplay:10.37,2013-01-11 17:53:00,
2013-01-11 11:58:00,58.3,46.2,29.61,North,1,0.0,0.0,64,0.00,CLR,OVC,0.00,WeatherDisplay:10.37,2013-01-11 17:58:00,
2013-01-11 12:03:00,57.9,45.4,29.62,North,1,0.0,0.0,63,0.00,CLR,OVC,0.00,WeatherDisplay:10.37,2013-01-11 18:03:00,
2013-01-11 12:08:00,57.9,45.0,29.62,North,1,0.0,0.0,62,0.00,CLR,OVC,0.00,WeatherDisplay:10.37,2013-01-11 18:08:00,
2013-01-11 12:13:00,57.9,45.0,29.62,North,1,0.0,0.0,62,0.00,CLR,OVC,0.00,WeatherDisplay:10.37,2013-01-11 18:13:00,
2013-01-11 12:18:00,57.9,45.0,29.61,North,1,0.0,0.0,62,0.00,CLR,OVC,0.00,WeatherDisplay:10.37,2013-01-11 18:18:00,
2013-01-11 12:23:00,58.5,45.1,29.61,North,1,0.0,0.0,61,0.00,CLR,OVC,0.00,WeatherDisplay:10.37,2013-01-11 18:23:00,
2013-01-11 12:28:00,58.3,44.9,29.61,North,1,0.0,0.0,61,0.00,CLR,OVC,0.00,WeatherDisplay:10.37,2013-01-11 18:28:00,
2013-01-11 12:33:00,57.9,44.5,29.61,North,1,0.0,0.0,61,0.00,CLR,OVC,0.00,WeatherDisplay:10.37,2013-01-11 18:33:00,
2013-01-11 12:38:00,57.4,44.5,29.62,North,1,0.0,0.0,62,0.00,CLR,OVC,0.00,WeatherDisplay:10.37,2013-01-11 18:38:00,
2013-01-11 12:43:00,57.0,44.5,29.61,North,1,0.0,0.0,63,0.00,CLR,OVC,0.00,WeatherDisplay:10.37,2013-01-11 18:43:00,
2013-01-11 12:48:00,56.5,44.0,29.60,North,1,0.0,0.0,63,0.00,CLR,OVC,0.00,WeatherDisplay:10.37,2013-01-11 18:48:00,
2013-01-11 12:53:00,56.1,43.7,29.60,North,1,0.0,0.0,63,0.00,CLR,OVC,0.00,WeatherDisplay:10.37,2013-01-11 18:53:00,
2013-01-11 12:58:00,55.9,43.5,29.59,North,1,0.0,0.0,63,0.00,CLR,OVC,0.00,WeatherDisplay:10.37,2013-01-11 18:58:00,
2013-01-11 13:03:00,55.9,43.9,29.60,North,1,0.0,0.0,64,0.00,CLR,OVC,0.00,WeatherDisplay:10.37,2013-01-11 19:03:00,
2013-01-11 13:08:00,55.6,43.6,29.59,North,1,0.0,0.0,64,0.00,CLR,OVC,0.00,WeatherDisplay:10.37,2013-01-11 19:08:00,
2013-01-11 13:13:00,55.4,43.8,29.59,North,1,0.0,0.0,65,0.00,CLR,OVC,0.00,WeatherDisplay:10.37,2013-01-11 19:13:00,
2013-01-11 13:18:00,55.2,44.1,29.58,North,1,0.0,0.0,66,0.00,CLR,OVC,0.00,WeatherDisplay:10.37,2013-01-11 19:18:00,
2013-01-11 13:23:00,55.2,44.1,29.58,North,1,0.0,0.0,66,0.00,CLR,OVC,0.00,WeatherDisplay:10.37,2013-01-11 19:23:00,
2013-01-11 13:28:00,55.2,44.1,29.58,North,1,0.0,0.0,66,0.00,CLR,OVC,0.00,WeatherDisplay:10.37,2013-01-11 19:28:00,
2013-01-11 13:33:00,55.4,44.2,29.57,North,1,0.0,0.0,66,0.00,CLR,OVC,0.00,WeatherDisplay:10.37,2013-01-11 19:33:00,
2013-01-11 13:38:00,55.6,44.8,29.57,North,1,0.0,0.0,67,0.00,CLR,OVC,0.00,WeatherDisplay:10.37,2013-01-11 19:38:00,
2013-01-11 13:43:00,55.9,45.1,29.57,North,1,0.0,0.0,67,0.00,CLR,OVC,0.00,WeatherDisplay:10.37,2013-01-11 19:43:00,
2013-01-11 13:48:00,56.1,45.3,29.58,North,1,0.0,0.0,67,0.00,CLR,OVC,0.00,WeatherDisplay:10.37,2013-01-11 19:48:00,
2013-01-11 13:53:00,56.1,44.9,29.57,North,1,0.0,0.0,66,0.00,CLR,OVC,0.00,WeatherDisplay:10.37,2013-01-11 19:53:00,
2013-01-11 13:58:00,56.1,44.5,29.57,North,1,0.0,0.0,65,0.00,CLR,OVC,0.00,WeatherDisplay:10.37,2013-01-11 19:58:00,
2013-01-11 14:03:00,56.1,44.5,29.57,North,1,0.0,0.0,65,0.00,CLR,OVC,0.00,WeatherDisplay:10.37,2013-01-11 20:03:00,
2013-01-11 14:08:00,56.1,44.5,29.58,North,1,0.0,0.0,65,0.00,CLR,OVC,0.00,WeatherDisplay:10.37,2013-01-11 20:08:00,
2013-01-11 14:13:00,56.1,44.5,29.58,North,1,0.0,0.0,65,0.00,CLR,OVC,0.00,WeatherDisplay:10.37,2013-01-11 20:13:00,
2013-01-11 14:18:00,56.1,44.5,29.57,North,1,0.0,0.0,65,0.00,CLR,OVC,0.00,WeatherDisplay:10.37,2013-01-11 20:18:00,
2013-01-11 14:23:00,55.9,44.3,29.57,North,1,0.0,0.0,65,0.00,CLR,OVC,0.00,WeatherDisplay:10.37,2013-01-11 20:23:00,
2013-01-11 14:28:00,55.9,44.3,29.58,North,1,0.0,0.0,65,0.00,CLR,OVC,0.00,WeatherDisplay:10.37,2013-01-11 20:28:00,
2013-01-11 14:33:00,55.9,44.3,29.57,North,1,0.0,0.0,65,0.00,CLR,OVC,0.00,WeatherDisplay:10.37,2013-01-11 20:33:00,
2013-01-11 14:38:00,55.9,44.3,29.58,North,1,0.0,0.0,65,0.00,CLR,OVC,0.00,WeatherDisplay:10.37,2013-01-11 20:38:00,
2013-01-11 14:43:00,55.8,44.2,29.58,North,1,0.0,0.0,65,0.00,CLR,OVC,0.00,WeatherDisplay:10.37,2013-01-11 20:43:00,
2013-01-11 14:48:00,55.8,44.2,29.58,North,1,0.0,0.0,65,0.00,CLR,OVC,0.00,WeatherDisplay:10.37,2013-01-11 20:48:00,
2013-01-11 14:53:00,55.6,44.4,29.57,North,1,0.0,0.0,66,0.00,CLR,OVC,0.00,WeatherDisplay:10.37,2013-01-11 20:53:00,
2013-01-11 14:58:00,55.6,44.4,29.57,North,1,0.0,0.0,66,0.00,CLR,OVC,0.00,WeatherDisplay:10.37,2013-01-11 20:58:00,
2013-01-11 15:03:00,55.4,44.2,29.57,North,1,0.0,0.0,66,0.00,CLR,OVC,0.00,WeatherDisplay:10.37,2013-01-11 21:03:00,
2013-01-11 15:08:00,55.4,44.2,29.57,North,1,0.0,0.0,66,0.00,CLR,OVC,0.00,WeatherDisplay:10.37,2013-01-11 21:08:00,
2013-01-11 15:13:00,55.4,44.2,29.57,North,1,0.0,0.0,66,0.00,CLR,OVC,0.00,WeatherDisplay:10.37,2013-01-11 21:13:00,
2013-01-11 15:18:00,55.2,44.1,29.57,North,1,0.0,0.0,66,0.00,CLR,OVC,0.00,WeatherDisplay:10.37,2013-01-11 21:18:00,
2013-01-11 15:23:00,55.2,44.1,29.57,North,1,0.0,0.0,66,0.00,CLR,OVC,0.00,WeatherDisplay:10.37,2013-01-11 21:23:00,
2013-01-11 15:28:00,55.0,43.9,29.58,North,1,0.0,0.0,66,0.00,CLR,OVC,0.00,WeatherDisplay:10.37,2013-01-11 21:28:00,
2013-01-11 15:33:00,55.2,44.1,29.58,North,1,0.0,0.0,66,0.00,CLR,OVC,0.00,WeatherDisplay:10.37,2013-01-11 21:33:00,
2013-01-11 15:38:00,55.0,43.9,29.57,North,1,0.0,0.0,66,0.00,CLR,OVC,0.00,WeatherDisplay:10.37,2013-01-11 21:38:00,
2013-01-11 15:43:00,55.0,43.9,29.57,North,1,0.0,0.0,66,0.00,CLR,OVC,0.00,WeatherDisplay:10.37,2013-01-11 21:43:00,
2013-01-11 15:48:00,55.0,43.9,29.57,North,1,0.0,0.0,66,0.00,CLR,OVC,0.00,WeatherDisplay:10.37,2013-01-11 21:48:00,
2013-01-11 15:53:00,55.0,43.9,29.58,North,1,0.0,0.0,66,0.00,CLR,OVC,0.00,WeatherDisplay:10.37,2013-01-11 21:53:00,
2013-01-11 15:58:00,54.9,43.7,29.58,North,1,0.0,0.0,66,0.00,CLR,OVC,0.00,WeatherDisplay:10.37,2013-01-11 21:58:00,
2013-01-11 16:03:00,54.9,43.7,29.58,North,1,0.0,0.0,66,0.00,CLR,OVC,0.00,WeatherDisplay:10.37,2013-01-11 22:03:00,
2013-01-11 16:08:00,55.0,43.9,29.58,North,1,0.0,0.0,66,0.00,CLR,OVC,0.00,WeatherDisplay:10.37,2013-01-11 22:08:00,
2013-01-11 16:13:00,55.0,43.9,29.58,North,1,0.0,0.0,66,0.00,CLR,OVC,0.00,WeatherDisplay:10.37,2013-01-11 22:13:00,
2013-01-11 16:18:00,55.0,43.9,29.58,North,1,0.0,0.0,66,0.00,CLR,OVC,0.00,WeatherDisplay:10.37,2013-01-11 22:18:00,
2013-01-11 16:23:00,55.0,43.9,29.57,North,1,0.0,0.0,66,0.00,CLR,OVC,0.00,WeatherDisplay:10.37,2013-01-11 22:23:00,
2013-01-11 16:28:00,55.0,43.9,29.57,North,1,0.0,0.0,66,0.00,CLR,OVC,0.00,WeatherDisplay:10.37,2013-01-11 22:28:00,
2013-01-11 16:33:00,54.9,43.7,29.57,North,1,0.0,0.0,66,0.00,CLR,OVC,0.00,WeatherDisplay:10.37,2013-01-11 22:33:00,
2013-01-11 16:38:00,54.9,43.7,29.57,North,1,0.0,0.0,66,0.00,CLR,OVC,0.00,WeatherDisplay:10.37,2013-01-11 22:38:00,
2013-01-11 16:43:00,54.7,43.5,29.58,North,1,0.0,0.0,66,0.00,CLR,OVC,0.00,WeatherDisplay:10.37,2013-01-11 22:43:00,
2013-01-11 16:48:00,54.7,43.5,29.57,North,1,0.0,0.0,66,0.00,CLR,OVC,0.00,WeatherDisplay:10.37,2013-01-11 22:48:00,
2013-01-11 16:53:00,54.9,44.1,29.57,North,1,0.0,0.0,67,0.00,CLR,OVC,0.00,WeatherDisplay:10.37,2013-01-11 22:53:00,
2013-01-11 16:58:00,54.9,44.1,29.58,North,1,0.0,0.0,67,0.00,CLR,OVC,0.00,WeatherDisplay:10.37,2013-01-11 22:58:00,
2013-01-11 17:03:00,54.9,43.7,29.58,North,1,0.0,0.0,66,0.00,CLR,OVC,0.00,WeatherDisplay:10.37,2013-01-11 23:03:00,
2013-01-11 17:08:00,54.9,43.7,29.58,North,1,0.0,0.0,66,0.00,CLR,OVC,0.00,WeatherDisplay:10.37,2013-01-11 23:08:00,
2013-01-11 17:13:00,54.9,43.7,29.58,North,1,0.0,0.0,66,0.00,CLR,OVC,0.00,WeatherDisplay:10.37,2013-01-11 23:13:00,
2013-01-11 17:18:00,54.9,43.7,29.58,North,1,0.0,0.0,66,0.00,CLR,OVC,0.00,WeatherDisplay:10.37,2013-01-11 23:18:00,
2013-01-11 17:23:00,55.0,43.5,29.58,North,1,0.0,0.0,65,0.00,CLR,OVC,0.00,WeatherDisplay:10.37,2013-01-11 23:23:00,
2013-01-11 17:28:00,55.0,43.5,29.59,North,1,0.0,0.0,65,0.00,CLR,OVC,0.00,WeatherDisplay:10.37,2013-01-11 23:28:00,
2013-01-11 17:33:00,55.0,43.5,29.59,North,1,0.0,0.0,65,0.00,CLR,OVC,0.00,WeatherDisplay:10.37,2013-01-11 23:33:00,
2013-01-11 17:38:00,55.0,43.5,29.58,North,1,0.0,0.0,65,0.00,CLR,OVC,0.00,WeatherDisplay:10.37,2013-01-11 23:38:00,
2013-01-11 17:43:00,55.0,43.5,29.59,North,1,0.0,0.0,65,0.00,CLR,OVC,0.00,WeatherDisplay:10.37,2013-01-11 23:43:00,
2013-01-11 17:48:00,55.0,43.5,29.59,North,1,0.0,0.0,65,0.00,CLR,OVC,0.00,WeatherDisplay:10.37,2013-01-11 23:48:00,
2013-01-11 17:53:00,54.9,43.3,29.59,North,1,0.0,0.0,65,0.00,CLR,OVC,0.00,WeatherDisplay:10.37,2013-01-11 23:53:00,
2013-01-11 17:58:00,54.7,43.5,29.59,North,1,0.0,0.0,66,0.00,CLR,OVC,0.00,WeatherDisplay:10.37,2013-01-11 23:58:00,
2013-01-11 18:03:00,54.5,43.4,29.60,North,1,0.0,0.0,66,0.00,CLR,OVC,0.00,WeatherDisplay:10.37,2013-01-12 00:03:00,
2013-01-11 18:08:00,54.3,43.2,29.60,North,1,0.0,0.0,66,0.00,CLR,OVC,0.00,WeatherDisplay:10.37,2013-01-12 00:08:00,
2013-01-11 18:13:00,54.3,43.2,29.59,North,1,0.0,0.0,66,0.00,CLR,OVC,0.00,WeatherDisplay:10.37,2013-01-12 00:13:00,
2013-01-11 18:18:00,54.3,43.2,29.60,North,1,0.0,0.0,66,0.00,CLR,OVC,0.00,WeatherDisplay:10.37,2013-01-12 00:18:00,
2013-01-11 18:23:00,54.3,43.2,29.59,North,1,0.0,0.0,66,0.00,CLR,OVC,0.00,WeatherDisplay:10.37,2013-01-12 00:23:00,
2013-01-11 18:28:00,54.3,43.2,29.60,North,1,0.0,0.0,66,0.00,CLR,OVC,0.00,WeatherDisplay:10.37,2013-01-12 00:28:00,
2013-01-11 18:33:00,54.3,43.2,29.60,North,1,0.0,0.0,66,0.00,CLR,OVC,0.00,WeatherDisplay:10.37,2013-01-12 00:33:00,
2013-01-11 18:38:00,54.3,43.2,29.60,North,1,0.0,0.0,66,0.00,CLR,OVC,0.00,WeatherDisplay:10.37,2013-01-12 00:38:00,
2013-01-11 18:43:00,54.3,43.6,29.60,North,1,0.0,0.0,67,0.00,CLR,OVC,0.00,WeatherDisplay:10.37,2013-01-12 00:43:00,
2013-01-11 18:48:00,54.3,43.6,29.60,North,1,0.0,0.0,67,0.00,CLR,OVC,0.00,WeatherDisplay:10.37,2013-01-12 00:48:00,
2013-01-11 18:53:00,54.1,43.4,29.60,North,1,0.0,0.0,67,0.00,CLR,OVC,0.00,WeatherDisplay:10.37,2013-01-12 00:53:00,
2013-01-11 18:58:00,54.1,43.4,29.60,North,1,0.0,0.0,67,0.00,CLR,OVC,0.00,WeatherDisplay:10.37,2013-01-12 00:58:00,
2013-01-11 19:03:00,54.1,43.4,29.60,North,1,0.0,0.0,67,0.00,CLR,OVC,0.00,WeatherDisplay:10.37,2013-01-12 01:03:00,
2013-01-11 19:08:00,54.1,43.4,29.60,North,1,0.0,0.0,67,0.00,CLR,OVC,0.00,WeatherDisplay:10.37,2013-01-12 01:08:00,
2013-01-11 19:13:00,54.1,43.4,29.60,North,1,0.0,0.0,67,0.00,CLR,OVC,0.00,WeatherDisplay:10.37,2013-01-12 01:13:00,
2013-01-11 19:18:00,54.1,43.4,29.60,North,1,0.0,0.0,67,0.00,CLR,OVC,0.00,WeatherDisplay:10.37,2013-01-12 01:18:00,
2013-01-11 19:22:00,54.1,43.4,29.60,North,1,0.0,0.0,67,0.00,CLR,OVC,0.00,WeatherDisplay:10.37,2013-01-12 01:22:00,
2013-01-11 19:27:00,54.1,43.4,29.60,North,1,0.0,0.0,67,0.00,CLR,OVC,0.00,WeatherDisplay:10.37,2013-01-12 01:27:00,
2013-01-11 19:32:00,54.1,43.4,29.60,North,1,0.0,0.0,67,0.00,CLR,OVC,0.00,WeatherDisplay:10.37,2013-01-12 01:32:00,
2013-01-11 19:37:00,54.1,43.4,29.60,North,1,0.0,0.0,67,0.00,CLR,OVC,0.00,WeatherDisplay:10.37,2013-01-12 01:37:00,
2013-01-11 19:42:00,54.1,43.4,29.60,North,1,0.0,0.0,67,0.00,CLR,OVC,0.00,WeatherDisplay:10.37,2013-01-12 01:42:00,
2013-01-11 19:47:00,54.1,43.4,29.60,North,1,0.0,0.0,67,0.00,CLR,OVC,0.00,WeatherDisplay:10.37,2013-01-12 01:47:00,
2013-01-11 19:52:00,54.1,43.4,29.60,North,1,0.0,0.0,67,0.00,CLR,OVC,0.00,WeatherDisplay:10.37,2013-01-12 01:52:00,
2013-01-11 19:57:00,54.1,43.8,29.60,North,1,0.0,0.0,68,0.00,CLR,OVC,0.00,WeatherDisplay:10.37,2013-01-12 01:57:00,
2013-01-11 20:02:00,54.0,43.6,29.60,North,1,0.0,0.0,68,0.00,CLR,OVC,0.00,WeatherDisplay:10.37,2013-01-12 02:02:00,
2013-01-11 20:07:00,54.0,43.6,29.60,North,1,0.0,0.0,68,0.00,CLR,OVC,0.00,WeatherDisplay:10.37,2013-01-12 02:07:00,
2013-01-11 20:12:00,54.0,43.6,29.60,North,1,0.0,0.0,68,0.00,CLR,OVC,0.00,WeatherDisplay:10.37,2013-01-12 02:12:00,
2013-01-11 20:17:00,53.8,43.5,29.61,North,1,0.0,0.0,68,0.00,CLR,OVC,0.00,WeatherDisplay:10.37,2013-01-12 02:17:00,
2013-01-11 20:22:00,53.8,43.5,29.62,North,1,0.0,0.0,68,0.00,CLR,OVC,0.00,WeatherDisplay:10.37,2013-01-12 02:22:00,
2013-01-11 20:27:00,53.8,43.5,29.61,North,1,0.0,0.0,68,0.00,CLR,OVC,0.00,WeatherDisplay:10.37,2013-01-12 02:27:00,
2013-01-11 20:32:00,53.8,43.5,29.61,North,1,0.0,0.0,68,0.00,CLR,OVC,0.00,WeatherDisplay:10.37,2013-01-12 02:32:00,
2013-01-11 20:37:00,53.8,43.5,29.61,North,1,0.0,0.0,68,0.00,CLR,OVC,0.00,WeatherDisplay:10.37,2013-01-12 02:37:00,
2013-01-11 20:42:00,53.8,43.5,29.61,North,1,0.0,0.0,68,0.00,CLR,OVC,0.00,WeatherDisplay:10.37,2013-01-12 02:42:00,
2013-01-11 20:47:00,53.8,43.5,29.61,North,1,0.0,0.0,68,0.00,CLR,OVC,0.00,WeatherDisplay:10.37,2013-01-12 02:47:00,
2013-01-11 20:52:00,54.0,43.6,29.62,North,1,0.0,0.0,68,0.00,CLR,OVC,0.00,WeatherDisplay:10.37,2013-01-12 02:52:00,
2013-01-11 20:57:00,54.1,43.8,29.62,North,1,0.0,0.0,68,0.00,CLR,OVC,0.00,WeatherDisplay:10.37,2013-01-12 02:57:00,
2013-01-11 21:02:00,54.3,44.0,29.62,North,1,0.0,0.0,68,0.00,CLR,OVC,0.00,WeatherDisplay:10.37,2013-01-12 03:02:00,
2013-01-11 21:07:00,54.5,44.2,29.63,North,1,0.0,0.0,68,0.00,CLR,OVC,0.00,WeatherDisplay:10.37,2013-01-12 03:07:00,
2013-01-11 21:12:00,54.7,43.9,29.63,North,1,0.0,0.0,67,0.00,CLR,OVC,0.00,WeatherDisplay:10.37,2013-01-12 03:12:00,
2013-01-11 21:17:00,55.0,44.3,29.63,North,1,0.0,0.0,67,0.00,CLR,OVC,0.00,WeatherDisplay:10.37,2013-01-12 03:17:00,
2013-01-11 21:22:00,55.0,44.3,29.63,North,1,0.0,0.0,67,0.00,CLR,OVC,0.00,WeatherDisplay:10.37,2013-01-12 03:22:00,
2013-01-11 21:27:00,55.2,44.4,29.64,North,1,0.0,0.0,67,0.00,CLR,OVC,0.00,WeatherDisplay:10.37,2013-01-12 03:27:00,
2013-01-11 21:32:00,55.4,44.2,29.64,North,1,0.0,0.0,66,0.00,CLR,OVC,0.00,WeatherDisplay:10.37,2013-01-12 03:32:00,
2013-01-11 21:37:00,55.6,44.4,29.64,North,1,0.0,0.0,66,0.00,CLR,OVC,0.00,WeatherDisplay:10.37,2013-01-12 03:37:00,
2013-01-11 21:42:00,55.6,44.4,29.64,North,1,0.0,0.0,66,0.00,CLR,OVC,0.00,WeatherDisplay:10.37,2013-01-12 03:42:00,
2013-01-11 21:47:00,55.6,44.4,29.65,North,1,0.0,0.0,66,0.00,CLR,OVC,0.00,WeatherDisplay:10.37,2013-01-12 03:47:00,
2013-01-11 21:52:00,55.6,44.4,29.64,North,1,0.0,0.0,66,0.00,CLR,OVC,0.00,WeatherDisplay:10.37,2013-01-12 03:52:00,
2013-01-11 21:57:00,55.6,44.4,29.65,North,1,0.0,0.0,66,0.00,CLR,OVC,0.00,WeatherDisplay:10.37,2013-01-12 03:57:00,
2013-01-11 22:02:00,55.6,44.4,29.66,North,1,0.0,0.0,66,0.00,CLR,OVC,0.00,WeatherDisplay:10.37,2013-01-12 04:02:00,
2013-01-11 22:07:00,55.6,44.4,29.66,North,1,0.0,0.0,66,0.00,CLR,OVC,0.00,WeatherDisplay:10.37,2013-01-12 04:07:00,
2013-01-11 22:13:00,55.6,44.4,29.66,North,1,0.0,0.0,66,0.00,CLR,OVC,0.00,WeatherDisplay:10.37,2013-01-12 04:13:00,
2013-01-11 22:18:00,55.6,44.4,29.67,North,1,0.0,0.0,66,0.00,CLR,OVC,0.00,WeatherDisplay:10.37,2013-01-12 04:18:00,
2013-01-11 22:23:00,55.6,44.4,29.67,North,1,0.0,0.0,66,0.00,CLR,OVC,0.00,WeatherDisplay:10.37,2013-01-12 04:23:00,
2013-01-11 22:28:00,55.6,44.4,29.67,North,1,0.0,0.0,66,0.00,CLR,OVC,0.00,WeatherDisplay:10.37,2013-01-12 04:28:00,
2013-01-11 22:33:00,55.6,44.4,29.67,North,1,0.0,0.0,66,0.00,CLR,OVC,0.00,WeatherDisplay:10.37,2013-01-12 04:33:00,
2013-01-11 22:38:00,55.6,44.8,29.67,North,1,0.0,0.0,67,0.00,CLR,OVC,0.00,WeatherDisplay:10.37,2013-01-12 04:38:00,
2013-01-11 22:43:00,55.6,44.8,29.67,North,1,0.0,0.0,67,0.00,CLR,OVC,0.00,WeatherDisplay:10.37,2013-01-12 04:43:00,
2013-01-11 22:48:00,55.6,44.8,29.68,North,1,0.0,0.0,67,0.00,CLR,OVC,0.00,WeatherDisplay:10.37,2013-01-12 04:48:00,
2013-01-11 22:53:00,55.6,44.8,29.68,North,1,0.0,0.0,67,0.00,CLR,OVC,0.00,WeatherDisplay:10.37,2013-01-12 04:53:00,
2013-01-11 22:58:00,55.6,44.8,29.68,North,1,0.0,0.0,67,0.00,CLR,OVC,0.00,WeatherDisplay:10.37,2013-01-12 04:58:00,
2013-01-11 23:01:00,55.6,44.8,29.68,North,1,0.0,0.0,67,0.00,CLR,OVC,0.00,WeatherDisplay:10.37,2013-01-12 05:01:00,
2013-01-11 23:03:00,55.6,44.4,29.68,North,1,0.0,0.0,66,0.00,CLR,OVC,0.00,WeatherDisplay:10.37,2013-01-12 05:03:00,
2013-01-11 23:08:00,55.6,44.0,29.69,North,1,0.0,0.0,65,0.00,CLR,OVC,0.00,WeatherDisplay:10.37,2013-01-12 05:08:00,
2013-01-11 23:13:00,55.6,43.6,29.69,North,1,0.0,0.0,64,0.00,CLR,OVC,0.00,WeatherDisplay:10.37,2013-01-12 05:13:00,
2013-01-11 23:18:00,55.4,42.6,29.69,North,1,0.0,0.0,62,0.00,CLR,OVC,0.00,WeatherDisplay:10.37,2013-01-12 05:18:00,
2013-01-11 23:23:00,55.2,42.0,29.70,North,1,0.0,0.0,61,0.00,CLR,OVC,0.00,WeatherDisplay:10.37,2013-01-12 05:23:00,
2013-01-11 23:28:00,55.0,41.8,29.70,North,1,0.0,0.0,61,0.00,CLR,OVC,0.00,WeatherDisplay:10.37,2013-01-12 05:28:00,
2013-01-11 23:33:00,54.7,41.5,29.71,North,1,0.0,0.0,61,0.00,CLR,OVC,0.00,WeatherDisplay:10.37,2013-01-12 05:33:00,
2013-01-11 23:38:00,54.3,41.1,29.72,North,1,0.0,0.0,61,0.00,CLR,OVC,0.00,WeatherDisplay:10.37,2013-01-12 05:38:00,
2013-01-11 23:43:00,54.1,41.0,29.73,North,1,0.0,0.0,61,0.00,CLR,OVC,0.00,WeatherDisplay:10.37,2013-01-12 05:43:00,
2013-01-11 23:48:00,53.6,40.0,29.73,North,1,0.0,0.0,60,0.00,CLR,OVC,0.00,WeatherDisplay:10.37,2013-01-12 05:48:00,
2013-01-11 23:53:00,53.2,37.9,29.74,North,1,0.0,0.0,56,0.00,CLR,OVC,0.00,WeatherDisplay:10.37,2013-01-12 05:53:00,
2013-01-11 23:58:00,52.9,36.2,29.74,North,1,0.0,0.0,53,0.00,CLR,OVC,0.00,WeatherDisplay:10.37,2013-01-12 05:58:00,